Location: Huberhof
(49.2050°N, 7.4980°E)
Time: 05:07:14
(UTC+00:00)

Meteor 2-8 Rocket - Pass Details

Date: 29 October 2020
Orbit: 937 x 957 km, 82.5° (Epoch: 25 November)

Event Time Altitude Azimuth Distance (km) Brightness Sun altitude
Rises 17:12:31 0° 176° (S) 3,604 7.5 -10.2°
Reaches altitude 10° 17:15:01 10° 173° (S) 2,666 6.8 -10.6°
Maximum altitude 17:21:01 62° 94° (E) 1,066 4.5 -11.6°
Drops below altitude 10° 17:27:05 10° 16° (NNE) 2,696 6.6 -12.5°
Sets 17:29:37 0° 13° (NNE) 3,648 7.3 -13.0°
